Flag for Russia Weather past 2 weeks in Samara, Russia

Now
10 °F

Clear.


Feels Like: 4 °F
Forecast: 6 / 18 °F
Wind: 3 mph from East

Location: Samara

Current Time: Mar 4, 2015 at 11:53:24 PM

Latest Report: Mar 4, 2015 at 11:30 PM


Visibility: 10 mi

Pressure: 30.09 "Hg

Humidity: 85%

Dew point: 7 °F

Location of SamaraLocation

Historic Weather in Samara — Graph

°F

Samara temperature yesterday

Maximum temperature yesterday: 25 °F (at 2:30 PM)
Minimum temperature yesterday: 7 °F (at 5:00 AM)
Average temperature yesterday: 16 °F

Past Weeks' High & Low Weather Summary

 TemperatureHumidityPressure
High37 °F (Feb 23, 1:30 PM)100% (Feb 25, 11:30 PM)30.72 "Hg (Feb 25, 11:30 PM)
Low-11 °F (Feb 19, 8:00 AM)49% (Feb 20, 3:30 PM)29.95 "Hg (Feb 21, 3:30 AM)
Average17 °F78%30.32 "Hg
* Reported Feb 17 10:00 PM — Mar 4 10:30 PM, Samara, Weather by CustomWeather, © 2015

Note: Actual official high and low records may vary slightly from our data, if they occured in-between our weather recording intervals... More about our weather records

Advertising

Samara weather history for previous 24 hours

 ConditionsComfort  
Time TempWeatherWind HumidityBarometerVisibility
10:30 PM
Wed, Mar 4
12 °FClear.3 mph85%30.09 "Hg10 mi
10:00 PM14 °FClear.3 mph79%30.09 "Hg10 mi
9:30 PM14 °FClear.3 mph79%30.09 "Hg10 mi
9:00 PM14 °FClear.3 mph85%30.09 "Hg10 mi
8:30 PM14 °FClear.3 mph79%30.09 "Hg10 mi
8:00 PM12 °FClear.3 mph79%30.09 "Hg10 mi
7:30 PM14 °FClear.1 mph73%30.09 "Hg10 mi
7:00 PM19 °FSunny.6 mph68%30.09 "Hg10 mi
6:30 PM19 °FSunny.6 mph68%30.09 "Hg10 mi
6:00 PM21 °FSunny.6 mph63%30.09 "Hg10 mi
5:30 PM23 °FSunny.6 mph63%30.09 "Hg10 mi
5:00 PM23 °FSunny.3 mph58%30.09 "Hg10 mi
4:30 PM23 °FSunny.3 mph58%30.09 "Hg10 mi
4:00 PM21 °FSunny.3 mph68%30.09 "Hg10 mi
3:30 PM21 °FSunny.6 mph63%30.09 "Hg10 mi
3:00 PM21 °FSunny.6 mph63%30.09 "Hg10 mi
2:30 PM19 °FSunny.6 mph73%30.09 "Hg10 mi
2:00 PM25 °FSunny.3 mph63%30.09 "Hg10 mi
1:30 PM27 °FSunny.3 mph54%30.09 "Hg10 mi
1:00 PM21 °FSunny.6 mph63%30.09 "Hg10 mi
12:30 PM18 °FSunny.6 mph73%30.09 "Hg10 mi
12:00 PM14 °FSunny.1 mph85%30.09 "Hg10 mi
11:30 AM16 °FSunny.3 mph86%30.09 "Hg10 mi
11:00 AM19 °FSunny.1 mph79%30.12 "Hg10 mi
10:30 AM19 °FSunny.No wind93%30.12 "Hg10 mi
10:00 AM19 °FIce fog.No wind86%30.12 "Hg3 mi
9:30 AM12 °FIce fog.1 mph92%30.12 "Hg3 mi
9:00 AM12 °FIce fog.1 mph85%30.12 "Hg2 mi
8:30 AM12 °FIce fog.No wind85%30.12 "Hg1 mi
8:00 AM7 °FIce fog.No wind85%30.12 "Hg1 mi
7:30 AM5 °FIce fog.No wind85%30.12 "Hg0 mi
7:00 AM3 °FIce fog.1 mph85%30.12 "Hg0 mi
6:30 AM3 °FIce fog.3 mph92%30.12 "Hg0 mi
6:00 AM7 °FIce fog.1 mph92%30.15 "Hg1 mi
5:30 AM9 °FIce fog.No wind85%30.15 "Hg2 mi
5:00 AM10 °FIce fog.No wind85%30.15 "Hg2 mi
4:30 AM10 °FIce fog.1 mph85%30.15 "Hg2 mi
4:00 AM9 °FClear.3 mph92%30.15 "Hg10 mi
3:30 AM9 °FClear.6 mph85%30.15 "Hg10 mi
3:00 AM10 °FClear.1 mph92%30.15 "Hg10 mi
2:30 AM9 °FClear.6 mph85%30.15 "Hg10 mi
2:00 AM10 °FClear.6 mph85%30.15 "Hg10 mi
1:30 AM10 °FClear.3 mph92%30.15 "Hg10 mi
1:00 AM10 °FClear.3 mph92%30.18 "Hg10 mi
12:30 AM10 °FClear.3 mph92%30.18 "Hg10 mi
11:30 PM
Tue, Mar 3
14 °FClear.3 mph85%30.18 "Hg10 mi
11:00 PM14 °FClear.6 mph92%30.18 "Hg10 mi
Weather by CustomWeather, © 2015

See weather overviewHow to use our weather pages